When you browse on this site, cookies collect data to enhance your experience and personalize the content and advertising you see.
Visit our Privacy Policy to learn more. By continuing to use the site, you agree to this use of cookies and data.
  • In Latvia
  • List of Countries
  • For 7 days
  • Water Temperature
  • Satellite Maps
  • Weather Map
  • Weather Widgets
  • user-avatar
    Login

    Hourly Weather Korçe

    Today, 22 May, Wednesday

    Time Temperature Precipitation Wind Pressure Humidity
    00:00 +7°C° 0 mm 0 mps 666 mmHg 92%
    01:00 +8°C° 0 mm 1 mps 665 mmHg 91%
    02:00 +8°C° 0 mm 1 mps 665 mmHg 90%
    03:00 +7°C° 0 mm 1 mps 665 mmHg 88%
    04:00 +6°C° 0 mm 0 mps 665 mmHg 87%
    05:00 +9°C° 0 mm 1 mps 666 mmHg 80%
    06:00 +11°C° 0 mm 1 mps 666 mmHg 73%
    07:00 +13°C° 0 mm 1 mps 667 mmHg 66%
    08:00 +14°C° 0 mm 1 mps 667 mmHg 63%
    09:00 +15°C° 0 mm 2 mps 667 mmHg 59%
    10:00 +17°C° 0 mm 2 mps 668 mmHg 56%
    11:00 +17°C° 0 mm 2 mps 668 mmHg 55%
    12:00 +18°C° 0 mm 2 mps 668 mmHg 55%
    13:00 +18°C° 0 mm 3 mps 668 mmHg 54%
    14:00 +18°C° 0 mm 3 mps 668 mmHg 57%
    15:00 +17°C° 0 mm 3 mps 667 mmHg 60%
    16:00 +17°C° 0 mm 3 mps 667 mmHg 63%
    17:00 +15°C° 0 mm 2 mps 667 mmHg 71%
    18:00 +13°C° 0 mm 2 mps 666 mmHg 80%
    19:00 +11°C° 0 mm 1 mps 666 mmHg 88%
    20:00 +11°C° 0 mm 1 mps 666 mmHg 90%
    21:00 +10°C° 0 mm 1 mps 666 mmHg 92%
    22:00 +9°C° 0 mm 1 mps 666 mmHg 93%
    23:00 +9°C° 0 mm 1 mps 666 mmHg 92%

    Tomorrow, 23 May, Thursday

    Time Temperature Precipitation Wind Pressure Humidity
    00:00 +8°C° 0 mm 1 mps 665 mmHg 90%
    01:00 +7°C° 0 mm 0 mps 665 mmHg 88%
    02:00 +8°C° 0 mm 1 mps 665 mmHg 85%
    03:00 +8°C° 0 mm 1 mps 665 mmHg 81%
    04:00 +7°C° 0 mm 1 mps 665 mmHg 77%
    05:00 +9°C° 0 mm 1 mps 665 mmHg 72%
    06:00 +11°C° 0 mm 1 mps 666 mmHg 67%
    07:00 +13°C° 0 mm 1 mps 666 mmHg 62%
    08:00 +15°C° 0 mm 2 mps 667 mmHg 58%
    09:00 +16°C° 0 mm 2 mps 667 mmHg 53%
    10:00 +17°C° 0 mm 2 mps 667 mmHg 48%
    11:00 +18°C° 0 mm 2 mps 667 mmHg 48%
    12:00 +18°C° 0 mm 2 mps 667 mmHg 48%
    13:00 +18°C° 0 mm 2 mps 667 mmHg 47%
    14:00 +18°C° 0.1 mm 2 mps 666 mmHg 53%
    15:00 +17°C° 0.1 mm 2 mps 666 mmHg 59%
    16:00 +16°C° 0.1 mm 2 mps 665 mmHg 65%
    17:00 +15°C° 0.4 mm 2 mps 665 mmHg 73%
    18:00 +13°C° 0.4 mm 2 mps 665 mmHg 81%
    19:00 +10°C° 0.4 mm 2 mps 664 mmHg 89%
    20:00 +11°C° 0.2 mm 1 mps 664 mmHg 90%
    21:00 +11°C° 0.2 mm 1 mps 664 mmHg 90%
    22:00 +10°C° 0.2 mm 1 mps 665 mmHg 91%
    23:00 +10°C° 0 mm 1 mps 664 mmHg 90%

    Day after tomorrow, 24 May, Friday

    Time Temperature Precipitation Wind Pressure Humidity
    00:00 +10°C° 0 mm 1 mps 664 mmHg 90%
    01:00 +10°C° 0 mm 1 mps 664 mmHg 89%
    02:00 +9°C° 0 mm 1 mps 663 mmHg 89%
    03:00 +9°C° 0 mm 1 mps 663 mmHg 89%
    04:00 +9°C° 0 mm 1 mps 663 mmHg 90%
    05:00 +10°C° 0 mm 1 mps 664 mmHg 85%
    06:00 +11°C° 0 mm 1 mps 664 mmHg 80%
    07:00 +13°C° 0 mm 2 mps 665 mmHg 75%
    08:00 +14°C° 0.3 mm 2 mps 665 mmHg 71%
    09:00 +15°C° 0.3 mm 2 mps 665 mmHg 66%
    10:00 +17°C° 0.3 mm 2 mps 665 mmHg 62%
    11:00 +17°C° 0.7 mm 3 mps 665 mmHg 61%
    12:00 +17°C° 0.7 mm 3 mps 665 mmHg 61%
    13:00 +18°C° 0.7 mm 3 mps 665 mmHg 61%
    14:00 +17°C° 0.6 mm 3 mps 665 mmHg 64%
    15:00 +17°C° 0.6 mm 3 mps 665 mmHg 67%
    16:00 +16°C° 0.6 mm 3 mps 664 mmHg 70%
    17:00 +14°C° 0.1 mm 3 mps 664 mmHg 77%
    18:00 +13°C° 0.1 mm 2 mps 664 mmHg 84%
    19:00 +10°C° 0.1 mm 2 mps 663 mmHg 91%
    20:00 +10°C° 0 mm 1 mps 664 mmHg 92%
    21:00 +10°C° 0 mm 1 mps 664 mmHg 92%
    22:00 +9°C° 0 mm 1 mps 664 mmHg 93%
    23:00 +8°C° 0 mm 0 mps 664 mmHg 90%

    25 May, Saturday

    Time Temperature Precipitation Wind Pressure Humidity
    00:00 +7°C° 0 mm 0 mps 664 mmHg 88%
    01:00 +7°C° 0 mm 0 mps 664 mmHg 85%
    02:00 +7°C° 0 mm 0 mps 664 mmHg 84%
    03:00 +6°C° 0 mm 0 mps 664 mmHg 83%
    04:00 +6°C° 0 mm 0 mps 664 mmHg 82%
    05:00 +8°C° 0 mm 0 mps 664 mmHg 76%
    06:00 +10°C° 0 mm 0 mps 665 mmHg 70%
    07:00 +12°C° 0 mm 0 mps 666 mmHg 64%
    08:00 +15°C° 0 mm 1 mps 666 mmHg 59%
    09:00 +16°C° 0 mm 1 mps 667 mmHg 54%
    10:00 +18°C° 0 mm 2 mps 668 mmHg 50%
    11:00 +18°C° 0 mm 2 mps 668 mmHg 49%
    12:00 +19°C° 0 mm 3 mps 668 mmHg 48%
    13:00 +19°C° 0 mm 3 mps 668 mmHg 47%
    14:00 +19°C° 0 mm 3 mps 667 mmHg 50%
    15:00 +19°C° 0 mm 3 mps 667 mmHg 52%
    16:00 +18°C° 0 mm 3 mps 667 mmHg 55%
    17:00 +16°C° 0 mm 2 mps 667 mmHg 64%
    18:00 +14°C° 0 mm 2 mps 666 mmHg 74%
    19:00 +12°C° 0 mm 1 mps 666 mmHg 83%
    20:00 +11°C° 0 mm 1 mps 666 mmHg 86%
    21:00 +11°C° 0 mm 1 mps 666 mmHg 88%
    22:00 +10°C° 0 mm 1 mps 666 mmHg 90%
    23:00 +10°C° 0 mm 1 mps 666 mmHg 89%

    26 May, Sunday

    Time Temperature Precipitation Wind Pressure Humidity
    00:00 +9°C° 0 mm 1 mps 666 mmHg 88%
    01:00 +9°C° 0 mm 1 mps 666 mmHg 87%
    02:00 +9°C° 0 mm 1 mps 665 mmHg 83%
    03:00 +9°C° 0 mm 1 mps 665 mmHg 80%
    04:00 +9°C° 0 mm 1 mps 665 mmHg 76%
    05:00 +11°C° 0 mm 1 mps 666 mmHg 70%
    06:00 +12°C° 0 mm 0 mps 667 mmHg 64%
    07:00 +14°C° 0 mm 0 mps 667 mmHg 58%
    08:00 +15°C° 0 mm 0 mps 668 mmHg 53%
    09:00 +17°C° 0 mm 0 mps 668 mmHg 48%
    10:00 +19°C° 0 mm 0 mps 668 mmHg 43%
    11:00 +21°C° 0 mm 1 mps 668 mmHg 41%
    12:00 +22°C° 0 mm 1 mps 668 mmHg 40%
    13:00 +21°C° 0 mm 2 mps 668 mmHg 38%
    14:00 +21°C° 0 mm 2 mps 668 mmHg 41%
    15:00 +21°C° 0 mm 2 mps 668 mmHg 45%
    16:00 +20°C° 0 mm 2 mps 668 mmHg 48%
    17:00 +19°C° 0 mm 1 mps 667 mmHg 55%
    18:00 +18°C° 0 mm 1 mps 667 mmHg 62%
    19:00 +14°C° 0 mm 0 mps 666 mmHg 69%
    20:00 +14°C° 0 mm 0 mps 666 mmHg 69%
    21:00 +14°C° 0 mm 1 mps 666 mmHg 70%
    22:00 +14°C° 0 mm 1 mps 666 mmHg 70%
    23:00 +13°C° 0 mm 1 mps 666 mmHg 69%

    27 May, Monday

    Time Temperature Precipitation Wind Pressure Humidity
    00:00 +13°C° 0 mm 1 mps 666 mmHg 68%
    01:00 +13°C° 0 mm 1 mps 665 mmHg 68%
    02:00 +13°C° 0 mm 1 mps 665 mmHg 66%
    03:00 +13°C° 0 mm 2 mps 665 mmHg 65%
    04:00 +12°C° 0 mm 2 mps 665 mmHg 63%
    05:00 +14°C° 0 mm 2 mps 665 mmHg 63%
    06:00 +16°C° 0 mm 2 mps 666 mmHg 62%
    07:00 +18°C° 0 mm 2 mps 666 mmHg 61%
    08:00 +19°C° 0 mm 2 mps 667 mmHg 55%
    09:00 +21°C° 0 mm 2 mps 667 mmHg 50%
    10:00 +24°C° 0 mm 2 mps 667 mmHg 44%
    11:00 +24°C° 0 mm 2 mps 667 mmHg 43%
    12:00 +24°C° 0 mm 2 mps 667 mmHg 42%
    13:00 +24°C° 0 mm 3 mps 667 mmHg 41%
    14:00 +24°C° 0 mm 3 mps 667 mmHg 43%
    15:00 +23°C° 0 mm 2 mps 666 mmHg 45%
    16:00 +23°C° 0 mm 2 mps 666 mmHg 47%
    17:00 +20°C° 0 mm 2 mps 665 mmHg 55%
    18:00 +19°C° 0 mm 2 mps 665 mmHg 63%
    19:00 +17°C° 0 mm 2 mps 664 mmHg 72%
    20:00 +16°C° 0 mm 2 mps 664 mmHg 76%
    21:00 +15°C° 0 mm 2 mps 664 mmHg 80%
    22:00 +15°C° 0 mm 2 mps 663 mmHg 84%
    23:00 +14°C° 0 mm 2 mps 663 mmHg 84%
    Show more